timestamp,surface_pressure_avg,surface_temp_avg,battery_voltage,lat,long
2020-05-04 00:09:01+00:00,247.9547,3.3,12.65,47.84626,-54.09684
2020-05-04 00:19:01+00:00,242.1897,3.4,12.57,47.84626,-54.09684
2020-05-04 00:29:01+00:00,232.7765,3.41,12.57,47.84626,-54.09684
2020-05-04 00:39:01+00:00,227.6164,3.56,12.57,47.84626,-54.09684
2020-05-04 00:49:01+00:00,228.9497,3.6,12.57,47.84626,-54.09684
2020-05-04 00:59:01+00:00,225.2481,3.65,12.57,47.84626,-54.09684
2020-05-04 01:09:01+00:00,219.0781,3.82,12.57,47.84626,-54.09684
2020-05-04 01:19:01+00:00,217.1614,3.9,12.57,47.84626,-54.09684
2020-05-04 01:29:01+00:00,217.1081,3.9,12.57,47.84626,-54.09684
2020-05-04 01:39:01+00:00,213.4214,3.9,12.57,47.84626,-54.09684
2020-05-04 01:49:01+00:00,210.6231,3.9,12.57,47.84626,-54.09684
2020-05-04 01:59:01+00:00,213.7831,3.8,12.57,47.84626,-54.09684
2020-05-04 02:09:01+00:00,215.0181,3.7,12.57,47.84626,-54.09684
2020-05-04 02:19:01+00:00,213.2031,3.1,12.57,47.84626,-54.09684
2020-05-04 02:29:01+00:00,214.5365,2.9,12.57,47.84626,-54.09684
2020-05-04 02:39:01+00:00,216.5314,3.3,12.57,47.84626,-54.09684
2020-05-04 02:49:01+00:00,217.4581,3.1,12.57,47.84626,-54.09684
2020-05-04 02:59:01+00:00,216.9281,2.9,12.57,47.84626,-54.09684
2020-05-04 03:09:01+00:00,215.4248,2.89,12.57,47.84626,-54.09684
2020-05-04 03:19:01+00:00,214.2748,2.88,12.49,47.84626,-54.09684
2020-05-04 03:29:01+00:00,215.9614,2.8,12.49,47.84626,-54.09684
2020-05-04 03:39:01+00:00,219.2047,2.8,12.49,47.84626,-54.09684
2020-05-04 03:49:01+00:00,218.0414,2.81,12.49,47.84626,-54.09684
2020-05-04 03:59:01+00:00,218.0331,2.85,12.49,47.84626,-54.09684
2020-05-04 04:09:01+00:00,223.9598,2.91,12.49,47.84626,-54.09684
2020-05-04 04:19:01+00:00,228.5498,3.0,12.49,47.84626,-54.09684
2020-05-04 04:29:01+00:00,227.2365,3.0,12.49,47.84626,-54.09684
2020-05-04 04:39:01+00:00,229.1181,3.09,12.49,47.84626,-54.09684
2020-05-04 04:49:01+00:00,234.2048,3.23,12.49,47.84626,-54.09684
2020-05-04 04:59:01+00:00,238.8697,3.3,12.49,47.84626,-54.09684
2020-05-04 05:09:01+00:00,241.9531,3.3,12.49,47.84626,-54.09684
2020-05-04 05:19:01+00:00,248.3581,3.2,12.49,47.84626,-54.09684
2020-05-04 05:29:01+00:00,254.6631,3.2,12.49,47.84626,-54.09684
2020-05-04 05:39:01+00:00,260.3031,3.2,12.49,47.84626,-54.09684
2020-05-04 05:49:01+00:00,268.5681,3.0,12.49,47.84626,-54.09684
2020-05-04 05:59:01+00:00,276.7498,3.0,12.49,47.84626,-54.09684
2020-05-04 06:09:01+00:00,281.5081,2.9,12.49,47.84626,-54.09684
2020-05-04 06:19:01+00:00,285.8831,2.9,12.49,47.84626,-54.09684
2020-05-04 06:29:01+00:00,292.9831,2.9,12.49,47.84626,-54.09684
2020-05-04 06:39:01+00:00,298.3864,2.84,12.49,47.84626,-54.09684
2020-05-04 06:49:01+00:00,301.0697,2.8,12.49,47.84626,-54.09684
2020-05-04 06:59:01+00:00,309.0797,2.8,12.49,47.84626,-54.09684
2020-05-04 07:09:01+00:00,318.3397,2.81,12.49,47.84626,-54.09684
2020-05-04 07:19:01+00:00,324.1897,2.85,12.49,47.84626,-54.09684
2020-05-04 07:29:01+00:00,329.1980000000001,2.86,12.49,47.84626,-54.09684
2020-05-04 07:39:01+00:00,337.6797,2.88,12.49,47.84626,-54.09684
2020-05-04 07:49:01+00:00,339.213,2.82,12.49,47.84626,-54.09684
2020-05-04 07:59:01+00:00,339.543,2.82,12.49,47.84626,-54.09684
2020-05-04 08:09:01+00:00,344.5997,2.8,12.49,47.84626,-54.09684
2020-05-04 08:19:01+00:00,347.2896,2.8,12.49,47.84626,-54.09684
2020-05-04 08:29:01+00:00,348.2596,2.8,12.49,47.84626,-54.09684
2020-05-04 08:39:01+00:00,348.7163,2.8,12.49,47.84626,-54.09684
2020-05-04 08:49:01+00:00,351.6163,2.8,12.49,47.84626,-54.09684
2020-05-04 08:59:01+00:00,353.5446,2.8,12.49,47.84626,-54.09684
2020-05-04 09:09:01+00:00,353.80800000000005,2.8,12.49,47.84626,-54.09684
2020-05-04 09:19:01+00:00,356.4879,2.8,12.49,47.84626,-54.09684
2020-05-04 09:29:01+00:00,353.8445,2.8,12.49,47.84626,-54.09684
2020-05-04 09:39:01+00:00,347.9163,2.75,12.49,47.84626,-54.09684
2020-05-04 09:49:01+00:00,341.6312,2.78,12.49,47.84626,-54.09684
2020-05-04 09:59:01+00:00,337.0714,2.77,12.49,47.84626,-54.09684
2020-05-04 10:09:01+00:00,334.92800000000005,2.7,12.49,47.84626,-54.09684
2020-05-04 10:19:01+00:00,332.9946,2.7,12.65,47.84626,-54.09684
2020-05-04 10:29:01+00:00,331.5129,2.72,12.65,47.84626,-54.09684
2020-05-04 10:39:01+00:00,326.7747,2.8,12.65,47.84626,-54.09684
2020-05-04 10:49:01+00:00,321.70799999999997,2.8,12.65,47.84626,-54.09684
2020-05-04 10:59:01+00:00,317.563,2.83,12.65,47.84626,-54.09684
2020-05-04 11:09:01+00:00,313.4797,2.85,12.65,47.84626,-54.09684
2020-05-04 11:19:01+00:00,308.373,2.86,12.89,47.84626,-54.09684
2020-05-04 11:29:01+00:00,299.263,2.88,12.89,47.84626,-54.09684
2020-05-04 11:39:01+00:00,290.593,2.9,12.89,47.84626,-54.09684
2020-05-04 11:49:01+00:00,284.103,2.92,12.89,47.84626,-54.09684
2020-05-04 11:59:01+00:00,272.9497,2.97,12.89,47.84626,-54.09684
2020-05-04 12:09:01+00:00,263.9164,3.0,12.89,47.84626,-54.09684
2020-05-04 12:19:01+00:00,259.6115,3.0,13.44,47.84626,-54.09684
2020-05-04 12:29:01+00:00,256.4347,3.0,13.44,47.84626,-54.09684
2020-05-04 12:39:01+00:00,248.1165,3.03,13.44,47.84626,-54.09684
2020-05-04 12:49:01+00:00,242.938,3.06,13.44,47.84626,-54.09684
2020-05-04 12:59:01+00:00,238.4848,3.06,13.44,47.84626,-54.09684
2020-05-04 13:09:01+00:00,230.0515,3.04,13.44,47.84626,-54.09684
2020-05-04 13:19:01+00:00,220.1064,3.03,14.48,47.84626,-54.09684
2020-05-04 13:29:01+00:00,215.0098,3.03,14.48,47.84626,-54.09684
2020-05-04 13:39:01+00:00,210.4831,3.03,14.48,47.84626,-54.09684
2020-05-04 13:49:01+00:00,202.8647,3.09,14.48,47.84626,-54.09684
2020-05-04 13:59:01+00:00,197.498,3.19,14.48,47.84626,-54.09684
2020-05-04 14:09:01+00:00,202.9231,3.29,14.48,47.84626,-54.09684
2020-05-04 14:19:01+00:00,203.7281,3.3,14.56,47.84626,-54.09684
2020-05-04 14:29:01+00:00,199.3631,3.2,14.56,47.84626,-54.09684
2020-05-04 14:39:01+00:00,201.4714,3.19,14.56,47.84626,-54.09684
2020-05-04 14:49:01+00:00,202.9731,3.2,14.56,47.84626,-54.09684
2020-05-04 14:59:01+00:00,202.0581,3.2,14.56,47.84626,-54.09684
2020-05-04 15:09:01+00:00,200.6815,3.2,14.56,47.84626,-54.09684
2020-05-04 15:19:01+00:00,200.5398,3.11,14.64,47.84626,-54.09684
2020-05-04 15:29:01+00:00,195.2498,3.2,14.64,47.84626,-54.09684
2020-05-04 15:39:01+00:00,191.4315,3.3,14.64,47.84626,-54.09684
2020-05-04 15:49:01+00:00,193.7331,3.1,14.64,47.84626,-54.09684
2020-05-04 15:59:01+00:00,194.6565,3.2,14.64,47.84626,-54.09684
2020-05-04 16:09:01+00:00,193.6481,3.2,14.64,47.84626,-54.09684
2020-05-04 16:19:01+00:00,197.8898,3.1,14.32,47.84626,-54.09684
2020-05-04 16:29:01+00:00,203.0248,3.09,14.32,47.84626,-54.09684
2020-05-04 16:39:01+00:00,200.5965,3.15,14.32,47.84626,-54.09684
2020-05-04 16:49:01+00:00,202.7198,3.2,14.32,47.84626,-54.09684
2020-05-04 16:59:01+00:00,213.7148,3.2,14.32,47.84626,-54.09684
2020-05-04 17:09:01+00:00,216.9714,3.2,14.32,47.84626,-54.09684
2020-05-04 17:19:01+00:00,220.2198,3.2,14.48,47.84626,-54.09684
2020-05-04 17:29:01+00:00,222.9297,3.19,14.48,47.84626,-54.09684
2020-05-04 17:39:01+00:00,227.6114,3.19,14.48,47.84626,-54.09684
2020-05-04 17:49:01+00:00,237.5214,3.13,14.48,47.84626,-54.09684
2020-05-04 17:59:01+00:00,245.8298,3.18,14.48,47.84626,-54.09684
2020-05-04 18:09:01+00:00,251.0864,3.2,14.48,47.84626,-54.09684
2020-05-04 18:19:01+00:00,262.2914,3.1,14.32,47.84626,-54.09684
2020-05-04 18:29:01+00:00,278.0414,3.09,14.32,47.84626,-54.09684
2020-05-04 18:39:01+00:00,284.5231,3.09,14.32,47.84626,-54.09684
2020-05-04 18:49:01+00:00,287.2563,3.1,14.32,47.84626,-54.09684
2020-05-04 18:59:01+00:00,300.3497,2.6,14.32,47.84626,-54.09684
2020-05-04 19:09:01+00:00,308.3447,2.87,14.32,47.84626,-54.09684
2020-05-04 19:19:01+00:00,309.838,2.8,14.16,47.84626,-54.09684
2020-05-04 19:29:01+00:00,319.1613,2.74,14.16,47.84626,-54.09684
2020-05-04 19:39:01+00:00,326.478,2.6,14.16,47.84626,-54.09684
2020-05-04 19:49:01+00:00,328.6663,2.97,14.16,47.84626,-54.09684
2020-05-04 19:59:01+00:00,328.9113,2.7,14.16,47.84626,-54.09684
2020-05-04 20:09:01+00:00,336.0463,2.5,14.16,47.84626,-54.09684
2020-05-04 20:19:01+00:00,345.2396,2.54,14.0,47.84626,-54.09684
2020-05-04 20:29:01+00:00,346.3079,2.5,14.0,47.84626,-54.09684
2020-05-04 20:39:01+00:00,349.4347,2.5,14.0,47.84626,-54.09684
2020-05-04 20:49:01+00:00,357.3845,2.5,14.0,47.84626,-54.09684
2020-05-04 20:59:01+00:00,357.9596,2.5,14.0,47.84626,-54.09684
2020-05-04 21:09:01+00:00,356.1229,2.5,14.0,47.84626,-54.09684
2020-05-04 21:19:01+00:00,358.7929,2.51,13.84,47.84626,-54.09684
2020-05-04 21:29:01+00:00,363.0512,2.5,13.84,47.84626,-54.09684
2020-05-04 21:39:01+00:00,359.2996,2.48,13.84,47.84626,-54.09684
2020-05-04 21:49:01+00:00,355.7579,2.5,13.84,47.84626,-54.09684
2020-05-04 21:59:01+00:00,354.0613,2.5,13.84,47.84626,-54.09684
2020-05-04 22:09:01+00:00,350.2146,2.73,13.84,47.84626,-54.09684
2020-05-04 22:19:01+00:00,346.5763,3.02,13.6,47.84626,-54.09684
2020-05-04 22:29:01+00:00,345.5513,2.4,13.6,47.84626,-54.09684
2020-05-04 22:39:01+00:00,345.5129,2.4,13.6,47.84626,-54.09684
2020-05-04 22:49:01+00:00,340.0213,2.4,13.6,47.84626,-54.09684
2020-05-04 22:59:01+00:00,336.4847,2.37,13.6,47.84626,-54.09684
2020-05-04 23:09:01+00:00,329.4346,2.36,13.6,47.84626,-54.09684
2020-05-04 23:19:01+00:00,323.7079,2.37,13.21,47.84626,-54.09684
2020-05-04 23:29:01+00:00,315.4863,2.37,13.21,47.84626,-54.09684
2020-05-04 23:39:01+00:00,307.1714,2.35,13.21,47.84626,-54.09684
2020-05-04 23:49:01+00:00,297.403,2.37,13.21,47.84626,-54.09684
2020-05-04 23:59:01+00:00,291.423,2.36,13.21,47.84626,-54.09684
